SCP
0 0 0 0 0 0 0 0 0 0 0 0 0 0 0 0 0 0 0 0 0 0 0 0 0 0 0 0 0 0 0 0 0 0 1 1 1 1
0 0 0 0 0 0 0 0 0 0 0 0 0 0 0 0 0 0 0 0 0 0 0 0 0 0 0 0 0 0 0 0 0 0 1 1 1 1
1 1 1 0 0 1 1 1 1 0 0 0 0 0 0 0 0 0 0 0 0 0 0 0 0 0 0 0 0 0 0 0 0 0 0 0 0 1
1 1 1 1 0 0 1 1 1 1 1 0 0 0 0 0 0 0 0 0 0 0 0 0 0 0 0 0 0 0 0 0 0 0 0 0 0 0
2 2 1 1 1 0 0 1 1 1 1 1 0 0 0 0 0 0 0 0 0 0 0 0 0 0 0 0 0 0 0 0 0 0 0 0 0 0
2 2 1 1 1 0 0 1 1 1 2 1 1 1 0 0 0 0 0 0 0 0 0 0 0 0 0 0 0 0 0 0 0 0 0 0 0 0
2 2 1 1 1 0 0 0 1 1 2 2 1 1 0 0 0 0 0 1 1 0 0 0 0 0 0 0 0 0 0 0 0 0 0 0 0 0
2 2 1 1 0 0 0 0 0 1 1 1 1 1 1 0 0 0 0 1 1 1 0 0 0 0 0 0 0 0 0 0 0 0 0 0 0 0
1 1 1 0 0 0 0 0 0 0 0 1 1 1 1 0 0 0 0 0 0 0 0 0 0 0 0 0 0 0 0 0 0 0 0 0 0 0
1 1 0 0 0 0 0 0 0 0 0 0 0 0 0 0 0 0 0 0 0 0 0 0 0 0 0 0 0 0 0 0 0 0 0 0 0 0
0 0 0 0 0 0 0 0 0 0 0 0 0 0 0 0 0 0 0 0 0 0 0 0 0 0 0 0 0 0 0 0 0 0 0 0 0 0
0 0 0 0 0 0 0 0 0 0 0 0 0 0 0 0 0 0 0 0 0 0 0 0 0 0 0 0 0 0 0 0 0 0 0 0 0 0
0 0 0 0 0 0 0 0 0 0 0 0 0 0 0 0 0 0 0 0 0 0 0 0 0 0 0 0 0 0 0 0 0 0 0 0 0 0
0 0 0 0 0 0 0 0 0 0 0 0 0 0 0 0 0 0 0 0 0 0 0 0 0 0 0 0 0 0 0 0 0 0 0 0 0 0
0 0 0 0 0 0 0 0 0 0 0 0 0 0 0 0 0 0 0 0 0 0 0 0 0 0 0 0 0 0 0 0 0 0 0 0 0 0
0 0 0 0 0 0 0 0 0 0 0 0 0 0 0 0 0 0 0 0 0 0 0 0 0 0 0 0 0 0 0 0 0 0 0 0 0 0
0 0 0 0 0 0 0 0 0 0 0 0 0 0 0 0 0 0 0 0 0 0 0 0 0 0 0 0 0 0 0 0 0 0 0 0 0 0
0 0 0 0 0 0 0 0 0 0 0 0 0 0 0 0 0 0 0 0 0 0 0 0 0 0 0 0 0 0 0 0 0 0 0 0 0 0
0 0 0 0 0 0 0 0 0 0 0 0 0 0 0 0 0 0 0 0 0 0 0 0 0 0 0 0 0 0 0 0 0 0 0 0 0 0
0 0 0 0 0 0 0 0 0 0 0 0 0 0 0 0 0 0 0 0 0 0 0 0 0 0 0 0 0 0 0 0 0 0 0 0 0 0
0 0 0 0 0 0 0 0 0 0 0 0 0 0 0 0 0 0 0 0 0 0 0 0 0 0 0 0 0 0 0 0 0 0 0 0 0 0
0 0 0 0 0 0 0 0 0 0 0 0 0 0 0 0 0 0 0 0 0 0 0 0 0 0 0 0 0 0 0 0 0 0 0 0 0 0
0 0 0 0 0 0 0 0 0 0 0 0 0 0 0 0 0 0 0 0 0 0 0 0 0 0 0 0 0 0 0 0 0 0 0 0 0 0
Wind_Speed
12 12 11 9 9 9 9 9 11 13 12 7 6 6 8 8 11 9 10 14 18 19 19 19 19 19 19 19 19 19 19 19 18 18 18 17 17 16
9 11 12 9 9 9 9 9 10 12 14 6 6 6 7 7 10 10 11 14 16 17 17 17 17 18 18 18 19 19 19 19 19 18 18 17 17 16
10 11 12 10 9 8 8 9 10 10 15 11 6 6 7 8 7 8 8 9 9 15 16 17 16 17 17 17 18 18 18 18 18 17 17 16 16 16
11 11 12 9 11 9 9 10 10 10 12 15 9 6 9 8 8 8 7 7 8 12 15 16 16 16 16 17 17 16 16 16 16 15 15 15 15 15
11 12 12 11 12 10 10 10 9 9 10 12 12 7 6 5 6 6 6 6 6 8 12 14 15 16 16 16 16 15 15 15 15 14 14 14 14 14
11 11 11 11 12 11 10 11 9 10 10 11 11 8 6 4 4 5 6 6 7 6 9 9 11 13 15 15 14 14 14 14 15 14 14 13 13 13
10 11 11 12 14 12 10 9 9 10 9 9 10 8 7 4 6 5 7 6 6 5 5 6 6 7 8 11 13 13 14 14 14 14 13 13 13 13
10 10 10 11 12 14 15 15 14 13 12 11 10 11 10 9 7 6 6 5 7 5 6 6 5 7 7 6 11 14 15 15 15 14 14 13 13 12
9 9 8 7 9 10 12 14 15 17 18 14 14 13 11 9 8 8 8 8 9 5 5 6 5 7 6 7 12 14 14 14 14 14 13 13 13 12
8 8 9 9 8 9 10 11 12 12 13 13 14 13 11 9 9 10 10 8 5 3 5 6 5 5 4 5 11 14 14 14 14 13 13 12 12 11
8 8 8 9 10 10 10 11 11 10 9 12 13 13 13 12 9 5 5 5 6 5 5 5 4 3 3 4 7 12 13 13 13 13 12 12 11 10
7 6 8 10 11 10 9 9 11 10 7 7 8 10 10 9 9 8 7 6 5 5 6 6 4 4 3 2 3 4 6 10 12 12 12 12 12 7
7 6 6 10 12 11 10 9 11 10 7 7 7 7 6 5 5 5 6 6 7 6 5 5 5 4 4 3 2 2 3 3 5 7 10 12 12 9
7 7 7 12 13 13 10 10 11 9 5 5 6 6 6 5 5 4 4 4 4 5 5 6 5 6 5 4 3 2 2 3 3 3 3 7 9 10
7 11 12 14 13 10 9 10 7 4 4 5 6 7 5 4 3 2 1 1 1 1 1 2 3 4 4 4 4 4 3 3 3 4 4 4 3 4
7 9 11 11 9 8 7 6 4 4 4 5 6 5 4 3 3 2 2 1 1 2 2 1 1 3 3 3 4 4 4 4 4 4 3 2 2 3
9 7 6 6 6 5 4 4 4 4 4 4 4 5 4 3 3 2 2 2 2 3 1 1 2 2 2 2 3 4 4 3 4 4 4 2 2 3
8 6 6 6 6 6 6 6 5 5 5 5 5 4 4 4 3 2 2 3 3 3 2 2 2 1 2 3 1 3 3 3 3 4 3 3 3 2
5 5 5 6 6 6 6 6 6 6 5 5 5 5 4 4 4 3 3 3 3 3 3 3 3 3 3 3 2 1 3 3 4 3 2 3 3 3
4 5 6 6 6 6 6 6 6 6 5 5 5 5 4 4 4 4 3 4 3 3 2 3 4 4 5 4 2 1 1 3 4 4 2 2 1 2
5 5 6 6 6 6 6 6 6 6 6 6 5 5 5 4 4 4 4 4 3 3 4 4 2 1 2 4 3 1 2 2 2 3 4 3 2 2
6 6 6 6 6 6 6 6 6 6 6 6 6 5 5 4 5 4 4 3 3 3 3 1 2 2 2 3 3 3 2 3 4 6 4 3 4 5
6 6 6 6 6 5 5 6 7 6 6 6 6 5 5 4 4 4 3 3 3 3 3 2 2 1 1 3 4 3 4 3 2 3 3 4 4 3
Wind_Direction
237 236 238 239 236 235 235 236 253 272 272 245 232 222 223 225 230 229 231 233 232 233 235 236 236 237 238 240 242 244 246 245 245 242 242 240 240 240
238 238 239 240 238 234 234 235 237 252 269 257 232 225 217 224 227 227 230 231 231 233 234 235 235 234 235 236 238 240 241 241 243 241 240 240 239 238
244 244 246 244 244 241 237 237 239 242 260 268 244 230 221 227 230 228 230 231 231 228 231 233 232 232 232 233 234 235 237 238 239 238 238 239 240 237
248 246 248 246 245 245 242 242 243 240 252 266 264 240 232 229 230 227 227 228 231 228 225 228 229 230 230 230 229 230 231 233 232 232 234 237 238 235
250 249 250 246 248 246 244 246 245 245 245 258 265 254 245 231 232 235 232 232 230 228 223 227 229 230 229 228 227 226 225 225 224 225 228 233 233 230
254 252 251 248 249 250 249 248 249 249 247 252 259 258 250 237 223 234 245 234 236 226 228 226 226 227 228 227 225 222 220 219 221 222 222 223 221 219
261 256 253 251 250 250 251 251 249 251 250 252 256 257 249 232 231 224 240 245 242 218 225 226 223 225 224 225 223 218 217 219 218 217 216 215 211 209
271 268 263 252 253 250 249 249 246 248 251 251 253 252 252 241 236 227 234 240 252 211 211 233 212 226 224 217 217 213 214 215 214 212 210 207 205 204
273 275 274 269 260 258 255 252 249 247 245 249 256 254 253 243 234 234 230 231 242 210 194 238 216 230 224 218 212 210 210 211 210 208 205 203 201 199
278 278 279 279 271 268 267 263 258 253 248 247 254 259 258 251 235 236 236 236 247 229 191 230 219 226 221 214 211 209 208 207 206 204 201 200 198 195
283 280 278 280 281 277 272 272 273 271 264 252 255 258 258 253 243 235 228 224 243 235 202 214 219 216 216 218 213 206 204 204 202 200 196 194 193 190
299 291 283 285 291 286 276 276 277 279 282 285 274 271 266 258 241 234 226 228 238 239 202 193 199 179 215 224 206 198 199 202 200 198 196 193 188 182
305 304 303 306 304 301 292 281 278 284 284 279 277 276 272 265 254 244 235 231 232 237 197 182 190 187 191 190 200 190 186 186 191 196 195 193 188 179
303 305 306 309 307 305 299 294 294 291 285 282 280 277 275 273 269 254 241 239 244 238 200 183 187 186 182 189 199 177 178 178 173 176 179 185 190 186
305 305 307 310 309 306 301 299 297 292 285 280 276 276 280 279 276 272 281 234 255 277 199 190 184 184 192 197 183 172 172 187 180 169 168 171 174 171
313 312 310 309 306 303 307 307 299 289 279 278 282 285 289 284 274 267 251 232 243 293 354 8 190 178 192 202 183 181 174 175 170 164 153 152 151 162
319 316 319 323 322 319 316 312 308 304 295 291 283 282 282 278 278 273 249 233 229 235 262 4 37 66 70 161 184 180 165 162 161 154 149 155 177 177
324 316 317 317 315 316 315 313 310 302 297 294 288 283 281 277 276 272 251 234 232 228 212 187 146 90 50 11 36 171 160 159 151 148 150 164 190 190
330 315 312 312 312 312 310 309 307 303 297 290 287 286 284 279 271 266 257 242 233 223 208 188 183 175 190 226 312 26 166 156 146 148 162 174 189 191
330 317 313 312 312 311 310 308 307 307 301 293 289 287 281 274 268 258 250 241 230 220 209 201 208 208 208 198 181 276 161 155 157 163 155 113 102 130
322 317 313 311 309 307 306 306 304 303 300 294 287 280 276 270 265 259 251 234 223 213 212 220 224 155 100 105 103 76 27 42 131 158 155 145 145 158
316 313 312 309 308 306 306 306 304 302 302 297 289 282 275 270 266 260 251 235 222 214 213 185 130 126 123 146 151 140 98 62 71 84 94 146 168 183
310 309 308 307 307 306 307 305 303 301 300 298 295 286 274 270 269 264 261 242 208 179 157 153 140 95 83 127 139 134 126 109 78 79 58 57 75 99